Location: Miles
(41.4492°N, 81.6087°W)
Time: 07:50:20
(UTC+00:00)

Transit 2A - Pass Details

Date: 18 September 2024
Orbit: 590 x 960 km, 66.7° (Epoch: 09 October)

Event Time Altitude Azimuth Distance (km) Brightness Sun altitude
Rises 08:10:40 0° 329° (NNW) 3,629 9.6 -32.2°
Reaches altitude 10° 08:13:18 10° 330° (NNW) 2,657 8.8 -31.8°
Enters shadow 08:15:28 23° 331° (NNW) 1,879 8.0 -31.5°
Maximum altitude 08:19:33 88° 62° (ENE) 898 - -30.9°
Drops below altitude 10° 08:25:16 10° 151° (SSE) 2,440 - -30.0°
Sets 08:27:35 0° 151° (SSE) 3,315 - -29.6°
